Location: Alto Pass Reservoir
(37.5801°N, 89.3084°W)
Time: 05:40:56
(UTC+00:00)

Cosmos 1666 - Pass Details

Date: 04 July 2022
Orbit: 490 x 510 km, 82.5° (Epoch: 16 August)

Event Time Altitude Azimuth Distance (km) Brightness Sun altitude
Exits shadow 08:32:44 21° 141° (SE) 1,176 4.3 -19.9°
Maximum altitude 08:34:34 33° 92° (E) 860 4.1 -19.7°
Drops below altitude 10° 08:37:57 10° 27° (NNE) 1,708 6.5 -19.3°
Sets 08:40:12 0° 18° (NNE) 2,592 7.5 -19.0°
